Reflectivity
-3 17 20 12 -20 0 -11 -14 -8 -20 -20 -9 -7 -20 -19 -20 -20 -20 -15 -20 -20 -20 -20 -20 -20 -20 -20 -20 -20 -20 -20 -20 -20 -20 -20 -20 -20 -20 -20 -20 -20 -20 -20 -20 -20 -20 -20
7 -1 24 31 8 9 3 6 -20 -16 -20 -20 -19 -20 -20 -6 -12 -14 -20 -20 -20 -20 -20 -20 -20 -20 -20 -20 -20 -20 -20 -20 -20 -20 -20 -20 -20 -20 -20 -20 -20 -20 -20 -20 -20 -20 -20
-17 14 16 28 29 6 6 2 -20 -20 -20 -20 -20 -20 -20 -20 -18 -20 -5 -12 -20 -20 -20 -20 -20 -20 -20 -20 -20 -20 -20 -20 -20 -20 -20 -20 -20 -20 -20 -20 -20 -20 -20 -20 -20 -20 -20
1 9 12 27 26 21 16 14 -1 -18 -20 -20 -20 -20 -20 -20 -20 -4 0 -18 -20 -20 -20 -20 -20 -20 -20 -20 -20 -20 -20 -20 -20 -20 -20 -20 -20 -20 -20 -20 -20 -20 -20 -20 -20 -20 -20
-9 12 14 16 14 18 0 9 -8 -4 -20 -20 14 -20 -20 -20 -20 -20 -20 -20 -20 -20 -20 -20 -20 -20 -20 -20 -20 -20 -20 -20 -20 -20 -20 -20 -20 -20 -20 -20 -20 -20 -20 -20 -20 -20 -20
-17 -18 -5 32 14 17 -9 -4 14 2 -20 -20 -20 -20 -20 -20 -20 -20 -20 -20 -20 -20 -20 -20 -20 -20 -20 -20 -20 -20 -20 -20 -20 -20 -20 -20 -20 -20 -20 -20 -20 -20 -20 -20 -20 -20 -20
13 -20 -14 25 -9 -3 19 21 -18 1 -20 -20 -20 -20 -20 -20 -20 -20 -20 -20 -20 -20 -20 -20 -20 -20 -20 -20 -20 -20 -20 -20 -20 -20 -20 -20 -20 -20 -20 -20 -20 -20 -20 -20 -20 -20 -20
14 4 -12 16 25 23 -20 -20 -20 15 -17 -20 -20 -20 -20 -20 -20 -20 -20 -20 -20 -20 -20 -20 -20 -20 -20 -20 -20 -20 -20 -20 -20 -20 -20 -20 -20 -20 -20 -20 -20 -20 -20 -20 -20 -20 -20
16 12 11 -1 13 18 19 -18 -8 -11 10 9 -20 -20 -20 -20 -20 -20 -20 -20 -20 -20 -20 -20 -20 -20 -20 -20 -20 -20 -20 -20 -20 -20 -20 -20 -20 -20 -20 -20 -20 -20 -20 -20 -20 -20 -20
14 15 5 -1 17 10 28 23 -19 -20 -16 8 -20 -20 -20 -20 -20 -20 -20 -20 -20 -20 -20 -20 -20 -20 -20 -20 -20 -20 -20 -20 -20 -20 -20 -20 -20 -20 -20 -20 -20 -20 -20 -20 -20 -20 -20
11 13 14 -1 9 22 23 25 8 -20 -19 18 -20 -20 -20 -20 -20 -20 -20 -20 -20 -20 -20 -20 -20 -20 -20 -20 -20 -20 -20 -20 -20 -20 -20 -20 -20 -20 -20 -20 -20 -20 -20 -20 -20 -20 -20
1 15 14 8 -7 15 23 12 37 8 12 11 -20 -20 -20 -20 -20 -20 -20 -20 -20 -20 -20 -20 -20 -20 -20 -20 -20 -20 -20 -20 -20 -20 -20 -20 -20 -20 -20 -20 -20 -20 -20 -20 -20 -20 -15
1 13 9 15 -3 -4 17 22 28 29 2 14 -9 -20 -20 -20 -20 -20 -20 -20 -20 -20 -20 -20 -20 -20 -20 -20 -20 -20 -20 -20 -20 -20 -20 -20 -20 -20 -20 -20 -20 -20 -20 -20 -20 -20 -17
1 12 12 12 -3 10 20 38 25 17 12 13 16 -20 -20 -20 -20 -20 -20 -20 -20 -20 -20 -20 -20 -20 -20 -20 -20 -20 -20 -20 -20 -20 -20 -20 -20 -20 -20 -20 -20 -20 -20 -20 -20 -20 -5
22 14 -2 14 15 10 16 24 29 16 16 3 -14 -20 -20 -20 3 -20 -20 -20 -20 -20 -20 -20 -20 -20 -20 -20 -20 -20 -20 -20 -20 -20 -20 -20 -20 -20 -20 -20 -20 -20 -20 -20 -19 -17 -20
11 20 9 12 4 13 13 18 29 22 3 12 -20 -20 -20 -20 -20 -20 -20 -20 -20 -20 -20 -20 -20 -20 -20 -20 -20 -20 -20 -20 -20 -20 -20 -20 -20 -20 -20 -20 -20 -20 -20 -20 -18 -7 -20
10 22 -6 13 -7 12 14 -1 22 18 -2 -8 -20 -20 -20 -20 -20 -20 -20 -20 -20 -20 -20 -20 -20 -20 -20 -20 -20 -20 -20 -20 -20 -20 -20 -20 -20 -20 -20 -20 -20 -20 -20 -20 -6 -6 -20
0 20 -3 13 -9 14 10 5 27 14 23 21 -15 -20 -20 -20 -20 -20 -20 -20 -20 -20 -20 -20 -20 -20 -20 -20 -20 -20 -20 -20 -20 -20 -20 -20 -20 -20 -20 -20 -20 -20 -20 -20 -20 -20 -20
13 22 13 -10 1 -3 14 22 29 10 13 -1 -20 -4 -10 -19 -20 -20 -20 -20 -20 -20 -20 -20 -20 -20 -20 -20 -20 -20 -20 -20 -20 -20 -20 -20 -20 -20 -20 -20 -20 -20 -20 -20 -20 -20 -20
12 18 15 12 1 12 17 14 28 30 11 -18 -20 0 5 -19 -20 -20 -20 -20 -20 -20 -20 -20 -20 -20 -20 -20 -20 -20 -20 -20 -20 -20 -20 -20 -20 -20 -20 -20 -20 -20 -20 -20 -20 -20 -20
26 15 8 12 14 12 23 24 23 18 -20 -20 -20 -20 -20 -20 -20 -20 -20 -20 -20 -20 -20 -20 -20 -20 -20 -20 -20 -20 -20 -20 -20 -20 -20 -20 -20 -20 -20 -20 -20 -20 -20 -20 -20 -20 -20
22 16 12 -13 14 15 13 -15 7 1 -15 -20 -20 -20 -20 -20 -20 -20 -20 -20 -20 -20 -20 -20 -20 -20 -20 -20 -20 -20 -20 -20 -20 -20 -20 -20 -20 -20 -20 -20 -20 -20 -20 -20 -20 -20 -20
7 11 7 -12 8 10 -1 24 16 22 14 -5 -20 -20 -7 -20 -20 -20 -20 -2 -19 -20 -20 -20 -20 -20 -20 -20 -20 -20 -20 -20 -20 -20 -20 -20 -20 -20 -8 -18 -13 -14 -20 -20 -20 -20 -20
10 3 -19 -2 12 10 -12 21 23 17 20 -19 -20 -11 -19 -20 -20 -20 -20 -20 -20 -20 -20 -20 -20 -20 -20 -20 -20 -20 -20 -20 -20 -20 -20 -20 -20 -20 -20 -20 -14 -20 -20 -20 -20 -20 -20
7 -10 -5 -4 11 -10 15 29 6 12 -17 -20 -20 -20 -20 -20 -4 -16 -20 -20 -20 -20 -20 -20 -20 -20 -20 -20 -20 -20 -20 -20 -20 -20 -20 -20 -20 -20 -20 -20 -20 -20 -20 -20 -20 -20 -20
8 9 8 16 7 -7 22 8 11 -13 15 15 -20 -20 -20 -20 -20 2 -20 -20 -20 -20 -20 -20 -20 -20 -20 -20 -20 -20 -20 -20 -20 -20 -20 -20 -20 -20 -20 -20 -20 -20 -20 -20 -20 -20 -20
15 -0 3 8 3 23 26 26 25 16 11 -19 -20 -20 -20 -14 5 -17 -19 -20 -20 -20 -20 -20 -20 -20 -20 -20 -20 -20 -20 -20 -20 -20 -20 -20 -20 -20 -20 -20 -20 -20 -20 -20 -20 -20 -20
13 5 10 -3 14 24 27 23 -5 1 -18 -20 11 -18 4 -20 -20 -13 -20 -20 -20 -20 -20 -20 -20 -20 -20 -20 -20 -20 -20 -20 -20 -20 -20 -20 -20 -20 -20 -20 -20 -20 -20 -20 -20 -20 -20
-17 15 13 13 17 24 16 4 10 -4 -10 23 21 10 -19 -20 -10 -11 1 -20 -20 -20 -20 -20 -20 -20 -20 -20 -20 -20 -20 -20 -20 -20 -20 -20 -20 -20 -20 -20 -20 -20 -20 -20 -20 -20 -20
Wind_Speed
25 25 20 20 20 20 21 19 18 16 14 12 12 11 11 11 9 9 5 5 1 2 6 9 13 14 5 3 2 3 8 9 7 8 7 6 4 5 4 7 8 6 4 12 11 13 13
22 24 22 20 20 21 21 20 19 16 16 15 15 14 13 11 11 10 5 2 3 2 4 8 12 13 2 2 3 6 7 7 6 6 7 7 4 5 6 3 2 6 9 12 9 14 6
20 23 25 18 18 20 21 19 18 17 14 13 13 8 8 11 8 9 7 5 5 6 4 6 8 3 2 1 4 5 7 4 5 5 5 6 4 2 5 7 4 7 6 8 7 11 4
19 20 23 24 21 21 21 20 20 19 17 15 12 13 11 12 11 9 6 6 6 7 6 3 3 1 1 0 0 5 5 5 8 7 3 8 5 3 3 3 7 6 2 4 8 10 7
21 20 22 24 23 22 22 21 21 20 19 16 14 13 13 12 11 9 5 6 3 5 3 1 1 2 0 0 3 4 3 5 7 7 7 8 1 4 4 3 4 6 3 5 6 8 6
20 20 19 24 24 23 22 23 21 21 20 18 16 16 14 13 11 9 4 1 4 5 2 3 2 2 3 3 3 4 5 4 4 9 8 10 4 3 5 5 3 6 4 2 4 5 5
21 20 21 18 22 23 25 23 23 21 19 19 19 18 16 13 11 9 4 0 4 3 1 2 1 2 2 6 2 6 4 5 7 7 5 6 5 3 6 3 3 4 4 5 4 7 6
19 21 21 21 20 25 24 24 24 22 21 22 20 19 17 14 11 9 2 5 2 1 1 1 2 3 2 3 2 7 5 6 5 4 7 8 2 6 7 6 7 7 6 4 3 10 6
19 20 21 21 19 24 26 26 24 24 24 24 21 20 17 14 12 4 3 7 2 2 3 1 2 4 2 4 4 5 6 4 5 6 6 1 4 11 8 9 11 6 7 11 13 8 9
19 20 21 22 22 21 27 27 26 27 27 26 24 21 18 15 7 3 2 4 3 2 5 3 1 1 1 2 6 6 5 3 6 5 6 3 7 7 9 10 11 4 11 13 12 4 1
20 21 21 22 23 23 25 26 25 27 29 27 26 22 20 5 8 5 4 6 4 5 4 4 2 1 1 3 3 4 6 6 4 4 2 6 4 5 9 6 7 7 14 15 13 3 7
21 21 22 22 22 23 24 27 28 30 29 28 26 22 16 5 4 3 6 6 5 9 6 3 3 3 3 4 2 2 6 7 3 4 6 4 1 9 3 9 3 13 15 7 5 7 6
22 21 22 23 23 23 27 30 32 31 31 28 25 21 5 3 5 5 5 4 7 5 3 4 3 3 6 4 6 5 4 8 4 5 7 6 4 6 11 9 4 9 8 6 8 5 2
22 22 24 24 25 24 26 35 34 33 31 30 25 11 9 3 4 4 4 6 5 3 3 5 4 6 4 3 4 2 4 5 3 3 3 4 6 8 12 4 5 6 4 6 3 1 3
24 24 26 25 26 26 28 33 34 35 34 31 21 4 5 5 6 2 7 4 8 6 4 6 5 4 2 3 5 4 3 2 3 2 6 4 5 6 6 4 4 6 2 4 3 2 5
23 26 27 27 28 28 32 34 35 38 37 28 7 5 3 7 6 4 6 3 3 2 3 4 6 4 4 4 3 5 3 5 2 2 3 2 4 3 5 7 7 1 3 5 3 2 1
24 27 28 29 29 31 33 38 41 41 34 25 7 7 4 8 2 6 5 6 4 2 3 4 4 3 5 5 6 4 3 1 1 4 6 4 5 8 2 4 4 7 6 3 1 2 5
24 29 29 31 31 34 38 41 43 40 29 14 5 6 4 6 5 2 3 6 5 5 3 3 4 4 5 5 4 2 3 3 3 2 2 5 5 0 2 5 5 1 3 3 5 5 1
27 31 31 33 36 38 40 41 44 38 24 8 6 4 4 2 5 2 3 4 4 4 4 5 4 4 3 4 5 5 4 2 2 3 3 2 2 4 6 5 5 4 5 2 3 3 1
29 32 34 37 39 38 41 46 41 30 21 10 7 6 2 4 1 4 6 5 5 5 4 3 5 6 5 3 2 6 4 3 2 1 6 4 3 7 6 8 4 4 6 5 4 4 2
33 32 35 39 39 41 43 41 38 25 19 9 3 4 7 8 7 5 5 7 8 6 4 5 3 5 7 4 3 4 5 3 3 2 4 4 1 4 7 7 3 2 2 4 4 4 5
32 33 37 39 39 40 42 43 35 27 14 7 7 7 3 4 12 6 5 8 11 5 6 5 8 8 6 5 6 4 6 3 2 4 3 2 3 2 4 5 6 2 4 1 2 2 2
33 37 38 38 39 40 41 38 28 21 7 5 1 3 7 10 9 7 6 9 12 9 3 8 10 7 6 7 6 6 6 4 3 3 1 2 1 2 2 9 3 3 7 4 4 3 4
36 38 39 41 41 40 40 39 30 16 8 5 4 5 5 4 7 11 10 10 13 7 7 9 8 7 5 6 5 5 6 3 3 6 5 2 1 1 1 6 4 6 6 5 6 3 5
38 39 39 41 42 41 38 30 22 12 9 8 3 5 4 5 6 8 10 10 12 5 5 7 2 6 7 7 5 4 5 4 4 6 6 8 3 1 2 2 4 0 4 6 7 7 5
37 38 37 39 39 39 34 24 17 14 10 6 2 4 6 8 10 12 13 16 9 6 5 3 5 3 7 4 4 4 3 4 2 3 4 6 4 6 1 1 4 6 2 4 5 5 6
38 39 38 39 36 37 30 27 20 15 10 5 1 3 6 5 3 15 9 16 8 6 6 3 4 3 5 3 3 3 3 4 3 4 4 2 1 5 2 2 7 4 2 5 5 9 4
37 37 39 38 38 33 27 22 18 14 9 5 2 4 6 4 3 5 6 8 6 5 7 7 6 4 4 4 4 3 3 4 2 3 5 6 4 3 3 3 7 4 1 4 9 4 4
38 36 38 40 34 30 25 21 15 11 8 4 5 2 3 7 4 4 6 3 8 9 8 0 5 6 6 5 1 3 2 2 4 3 1 2 8 5 8 8 8 6 8 6 5 4 2
Wind_Direction
207 200 195 196 185 181 176 177 176 173 174 170 168 176 168 174 183 156 171 147 124 359 341 336 336 334 9 25 73 303 4 356 5 2 7 353 347 356 329 304 328 254 335 329 316 314 308
201 197 193 195 190 184 179 177 174 172 176 172 179 182 173 166 175 147 159 145 262 300 332 340 332 325 49 145 283 7 19 2 11 17 345 347 323 295 273 295 319 310 313 308 285 304 31
196 200 194 193 187 185 178 172 167 168 170 171 170 171 158 147 161 134 163 187 243 282 320 346 321 343 62 149 360 355 15 331 329 341 306 278 285 8 335 315 268 277 298 322 346 13 37
193 194 195 195 188 182 172 170 165 169 169 171 169 155 154 154 146 145 163 239 261 301 318 277 326 320 181 272 75 353 359 338 320 296 232 261 257 275 197 286 327 308 9 28 356 24 324
187 190 195 185 185 184 170 169 166 166 164 165 161 149 146 145 145 152 182 249 299 295 288 288 57 48 307 183 24 329 17 313 304 302 284 264 154 217 344 341 348 13 350 5 343 329 349
191 187 187 191 184 179 178 168 168 164 169 163 148 143 144 146 145 161 183 264 310 304 225 220 237 19 5 357 302 12 329 342 322 329 3 23 43 40 20 48 326 313 314 326 315 328 5
203 189 189 199 183 182 171 170 162 163 163 149 145 143 148 146 153 153 142 228 34 4 285 116 195 86 16 304 2 10 333 351 7 44 20 345 34 343 305 279 278 266 275 301 303 360 12
205 197 190 188 192 181 176 170 164 163 156 149 146 145 147 152 151 151 116 98 153 162 335 315 4 91 93 20 2 358 26 47 21 31 359 8 46 324 317 333 342 343 348 343 282 334 330
198 199 191 186 187 184 175 171 165 157 152 146 150 145 148 142 137 82 103 146 89 95 110 271 47 77 315 24 24 10 39 357 23 26 356 243 275 333 10 31 7 347 359 331 312 331 281
192 194 193 185 187 190 175 170 164 154 149 149 150 145 143 140 74 167 131 174 94 96 74 255 177 70 349 347 59 25 357 25 18 19 340 331 332 346 40 19 357 317 326 309 297 326 233
191 190 190 187 183 186 176 168 157 151 146 148 145 145 149 154 137 145 183 128 115 63 14 189 94 20 277 95 140 12 3 28 59 317 20 287 8 24 40 344 354 293 309 297 292 301 83
191 188 188 187 180 182 173 158 150 148 147 147 143 146 133 71 51 163 121 112 59 49 265 180 132 185 114 48 62 79 30 32 55 16 353 355 14 54 316 309 319 330 324 354 35 86 57
189 185 184 186 176 175 167 155 148 150 144 140 138 134 91 101 180 155 119 69 54 131 280 171 168 143 106 38 36 70 49 27 47 54 2 337 357 330 11 346 337 5 17 354 12 30 140
186 184 184 181 177 165 163 150 150 144 140 136 125 112 64 47 67 114 73 57 106 211 190 152 109 93 87 47 50 71 71 11 3 80 100 40 0 5 334 58 294 348 66 134 206 49 54
187 186 181 178 171 166 156 148 145 138 133 123 115 62 58 349 354 38 81 90 199 204 161 136 126 104 96 70 103 70 59 224 249 92 109 62 311 318 8 32 34 317 31 183 126 81 69
190 185 178 172 164 164 156 147 140 136 134 137 103 79 25 338 339 62 76 218 197 257 127 103 158 124 140 170 89 91 176 255 258 168 125 233 17 301 326 19 337 62 302 51 15 125 89
189 183 174 169 162 158 154 145 141 141 140 125 80 87 286 349 9 47 146 219 206 167 99 116 143 119 141 142 143 191 170 42 189 90 94 133 96 300 33 9 240 340 1 4 42 24 147
187 180 168 161 158 155 155 147 144 145 139 65 99 89 320 339 76 68 153 197 194 117 98 95 119 129 147 134 127 166 139 135 65 78 144 200 138 238 301 289 279 59 232 122 108 293 70
184 174 163 155 153 155 154 151 151 152 141 122 85 100 343 360 135 218 256 244 148 134 143 155 143 129 120 123 112 135 116 140 75 117 137 160 7 24 325 347 349 359 331 308 139 67 205
183 168 161 153 154 156 156 154 155 149 122 86 109 108 10 32 45 165 164 181 126 130 137 115 109 96 101 98 121 156 119 171 207 99 136 97 82 153 192 223 176 340 331 334 96 88 269
174 165 159 156 158 157 158 157 160 147 130 104 84 164 176 174 213 208 161 154 144 155 165 120 97 142 132 126 141 136 124 107 209 45 139 110 166 187 250 235 121 207 262 352 72 211 130
159 158 155 157 161 160 162 161 163 155 123 82 123 135 113 157 134 153 179 191 165 152 136 161 141 135 126 144 187 141 127 126 107 33 120 152 283 327 279 149 167 236 226 174 335 265 326
153 154 155 156 158 160 161 162 156 158 91 102 164 89 111 159 143 134 196 163 172 130 107 145 132 108 116 176 123 116 100 134 140 122 79 68 73 349 350 129 156 278 231 217 230 218 177
152 154 156 156 157 161 163 164 163 145 116 123 168 112 111 155 161 181 151 149 153 142 136 133 119 109 198 137 90 58 57 28 326 281 157 200 321 157 195 158 251 239 167 182 205 203 236
153 155 157 158 160 162 166 161 149 115 119 121 136 113 120 98 164 160 164 140 139 129 97 120 74 146 156 67 69 61 358 12 276 235 237 182 133 16 116 212 285 8 203 195 182 259 232
152 154 155 157 161 161 160 144 133 108 98 85 97 128 99 114 213 165 157 156 147 136 62 95 45 135 74 94 87 118 186 214 230 263 233 114 88 124 110 166 238 231 213 168 104 292 240
152 154 153 154 156 158 152 141 125 111 95 109 80 107 92 103 226 152 160 155 137 109 108 119 134 61 73 90 99 132 241 187 167 191 159 136 345 169 151 207 287 234 178 107 103 240 251
150 154 154 151 152 154 143 123 111 111 82 82 166 70 112 108 61 139 136 142 124 118 140 188 78 338 48 81 110 205 143 232 66 236 182 171 155 225 82 64 297 225 337 173 217 239 218
149 151 150 147 147 145 121 112 108 93 94 93 72 351 114 81 151 71 89 90 134 157 127 321 166 160 176 96 110 111 90 68 161 250 282 212 180 190 168 212 224 229 203 228 181 201 196